| time (UTC) | temp C | wind direction | speed KPH | gust KPH | rain 1hr cm | rain 24hr cm | rain mn cm | humidity % | barometer mb |
| 20260506092903 | 13 | 248 | 0.0 | 0.0 | 0.00 | 0.00 | 0.00 | 86 | 1017.7 |
| 20260506092403 | 13 | 257 | 0.0 | 0.0 | 0.00 | 0.00 | 0.00 | 86 | 1017.7 |
| 20260506091903 | 13 | 262 | 0.0 | 0.0 | 0.00 | 0.00 | 0.00 | 86 | 1017.7 |
| 20260506091402 | 13 | 262 | 0.0 | 0.0 | 0.00 | 0.00 | 0.00 | 85 | 1017.7 |
| 20260506090903 | 13 | 262 | 0.0 | 0.0 | 0.00 | 0.00 | 0.00 | 85 | 1017.7 |
| 20260506090403 | 13 | 262 | 0.0 | 0.0 | 0.00 | 0.00 | 0.00 | 85 | 1017.7 |
| 20260506085903 | 13 | 262 | 0.0 | 0.0 | 0.00 | 0.00 | 0.00 | 85 | 1017.7 |
| 20260506085403 | 13 | 262 | 0.0 | 0.0 | 0.00 | 0.00 | 0.00 | 84 | 1017.7 |
| 20260506084403 | 13 | 263 | 0.0 | 0.0 | 0.00 | 0.00 | 0.00 | 85 | 1017.7 |
| 20260506083402 | 13 | 202 | 0.0 | 0.0 | 0.00 | 0.00 | 0.00 | 85 | 1017.7 |
| 20260506082903 | 13 | 260 | 0.0 | 0.0 | 0.00 | 0.00 | 0.00 | 84 | 1017.7 |
| 20260506082402 | 13 | 236 | 0.0 | 0.0 | 0.00 | 0.00 | 0.00 | 85 | 1017.6 |
| 20260506081903 | 13 | 203 | 0.0 | 0.0 | 0.00 | 0.00 | 0.00 | 85 | 1017.6 |
| 20260506081402 | 13 | 203 | 0.0 | 0.0 | 0.00 | 0.00 | 0.00 | 85 | 1017.6 |
| 20260506080903 | 13 | 219 | 0.0 | 0.0 | 0.00 | 0.00 | 0.00 | 86 | 1017.5 |
| 20260506080403 | 13 | 219 | 0.0 | 0.0 | 0.00 | 0.00 | 0.00 | 85 | 1017.5 |
| 20260506073402 | 13 | 221 | 0.0 | 0.0 | 0.00 | 0.00 | 0.00 | 86 | 1017.2 |
| 20260506072902 | 13 | 221 | 0.0 | 0.0 | 0.00 | 0.00 | 0.00 | 86 | 1017.3 |
| 20260506072403 | 13 | 221 | 0.0 | 0.0 | 0.00 | 0.00 | 0.00 | 88 | 1017.1 |
| 20260506071902 | 13 | 221 | 0.0 | 0.0 | 0.00 | 0.00 | 0.00 | 87 | 1017.1 |
| 20260506071403 | 13 | 221 | 0.0 | 0.0 | 0.00 | 0.00 | 0.00 | 88 | 1017.1 |
| 20260506070902 | 13 | 221 | 0.0 | 0.0 | 0.00 | 0.00 | 0.00 | 88 | 1017.1 |
| 20260506070402 | 13 | 221 | 0.0 | 0.0 | 0.00 | 0.00 | 0.00 | 87 | 1017.0 |
| 20260506061902 | 13 | 221 | 0.0 | 0.0 | 0.00 | 0.00 | 0.00 | 88 | 1016.9 |
| 20260506061403 | 13 | 221 | 0.0 | 0.0 | 0.00 | 0.00 | 0.00 | 88 | 1016.9 |
| 20260506060403 | 13 | 221 | 0.0 | 0.0 | 0.00 | 0.00 | 0.00 | 88 | 1016.8 |
| 20260506050903 | 13 | 135 | 0.0 | 0.0 | 0.00 | 0.00 | 0.00 | 89 | 1016.3 |
| 20260506050403 | 13 | 135 | 0.0 | 0.0 | 0.00 | 0.00 | 0.00 | 90 | 1016.3 |
| 20260506044902 | 13 | 135 | 0.0 | 0.0 | 0.00 | 0.00 | 0.00 | 89 | 1016.3 |
| 20260506044403 | 13 | 135 | 0.0 | 0.0 | 0.00 | 0.00 | 0.00 | 88 | 1016.2 |
| 20260506043903 | 13 | 135 | 0.0 | 0.0 | 0.00 | 0.00 | 0.00 | 88 | 1016.2 |
| 20260506042903 | 13 | 135 | 0.0 | 0.0 | 0.00 | 0.00 | 0.00 | 86 | 1016.0 |
| 20260506042403 | 13 | 135 | 0.0 | 0.0 | 0.00 | 0.00 | 0.00 | 85 | 1016.0 |
| 20260506041903 | 13 | 135 | 0.0 | 0.0 | 0.00 | 0.00 | 0.00 | 85 | 1015.8 |
| 20260506041404 | 13 | 135 | 0.0 | 0.0 | 0.00 | 0.00 | 0.00 | 84 | 1015.8 |
| 20260506035903 | 14 | 135 | 0.0 | 0.0 | 0.00 | 0.00 | 0.00 | 83 | 1015.7 |
| 20260506034903 | 15 | 135 | 0.0 | 0.0 | 0.00 | 0.00 | 0.00 | 82 | 1015.6 |
| 20260506034403 | 15 | 135 | 0.0 | 0.0 | 0.00 | 0.00 | 0.00 | 81 | 1015.4 |
| 20260506033903 | 15 | 135 | 0.0 | 0.0 | 0.00 | 0.00 | 0.00 | 79 | 1015.3 |
| 20260506033403 | 15 | 135 | 0.0 | 0.0 | 0.00 | 0.00 | 0.00 | 80 | 1015.4 |
| 20260506032903 | 15 | 135 | 0.0 | 0.0 | 0.00 | 0.00 | 0.00 | 79 | 1015.4 |
| 20260506032404 | 16 | 135 | 0.0 | 0.0 | 0.00 | 0.00 | 0.00 | 79 | 1015.3 |
| 20260506031902 | 16 | 135 | 0.0 | 0.0 | 0.00 | 0.00 | 0.00 | 79 | 1015.3 |
| 20260506031403 | 16 | 135 | 0.0 | 0.0 | 0.00 | 0.00 | 0.00 | 78 | 1015.3 |
| 20260506030903 | 16 | 135 | 0.0 | 0.0 | 0.00 | 0.00 | 0.00 | 77 | 1015.3 |
| 20260506030402 | 16 | 135 | 0.0 | 0.0 | 0.00 | 0.00 | 0.00 | 76 | 1015.2 |
| 20260506025903 | 16 | 135 | 0.0 | 0.0 | 0.00 | 0.00 | 0.00 | 75 | 1015.2 |
| 20260506025402 | 16 | 135 | 0.0 | 0.0 | 0.00 | 0.00 | 0.00 | 75 | 1015.2 |
| 20260506024903 | 16 | 135 | 0.0 | 0.0 | 0.00 | 0.00 | 0.00 | 76 | 1015.1 |
| 20260506024402 | 16 | 135 | 0.0 | 0.0 | 0.00 | 0.00 | 0.00 | 76 | 1015.0 |
| 20260506023903 | 16 | 135 | 0.0 | 0.0 | 0.00 | 0.00 | 0.00 | 76 | 1014.9 |
| 20260506023403 | 16 | 132 | 0.0 | 0.0 | 0.00 | 0.00 | 0.00 | 77 | 1015.1 |
| 20260506022903 | 16 | 126 | 0.0 | 0.0 | 0.00 | 0.00 | 0.00 | 76 | 1015.2 |
| 20260506022402 | 16 | 175 | 0.0 | 0.0 | 0.00 | 0.00 | 0.00 | 77 | 1015.0 |
| 20260506021903 | 16 | 175 | 0.0 | 0.0 | 0.00 | 0.00 | 0.00 | 77 | 1015.0 |
| 20260506015903 | 16 | 176 | 0.0 | 0.0 | 0.00 | 0.00 | 0.00 | 76 | 1015.0 |
| 20260506015403 | 16 | 177 | 0.0 | 0.0 | 0.00 | 0.00 | 0.00 | 75 | 1015.1 |
| 20260506014903 | 16 | 177 | 0.0 | 0.0 | 0.00 | 0.00 | 0.00 | 73 | 1015.1 |
| 20260506014402 | 16 | 177 | 0.0 | 0.0 | 0.00 | 0.00 | 0.00 | 74 | 1015.0 |
| 20260506013902 | 16 | 175 | 0.0 | 0.0 | 0.00 | 0.00 | 0.00 | 74 | 1015.1 |
| 20260506013403 | 16 | 147 | 0.0 | 0.0 | 0.00 | 0.00 | 0.00 | 73 | 1015.1 |
| 20260506012902 | 16 | 147 | 0.0 | 0.0 | 0.00 | 0.00 | 0.00 | 72 | 1015.1 |
| 20260506012403 | 16 | 103 | 0.0 | 0.0 | 0.00 | 0.00 | 0.00 | 73 | 1015.1 |
| 20260506011903 | 16 | 47 | 0.0 | 0.0 | 0.00 | 0.00 | 0.00 | 71 | 1015.1 |
| 20260506011403 | 16 | 47 | 0.0 | 0.0 | 0.00 | 0.00 | 0.00 | 72 | 1015.1 |
| 20260506010902 | 16 | 39 | 0.0 | 0.0 | 0.00 | 0.00 | 0.00 | 72 | 1015.1 |
| 20260506010403 | 16 | 355 | 0.0 | 0.0 | 0.00 | 0.00 | 0.00 | 72 | 1015.1 |
| 20260506005403 | 16 | 76 | 0.0 | 0.0 | 0.00 | 0.00 | 0.00 | 73 | 1015.1 |
| 20260506003903 | 16 | 276 | 0.0 | 3.2 | 0.00 | 0.00 | 0.00 | 72 | 1015.2 |
| 20260506003402 | 16 | 279 | 0.0 | 3.2 | 0.00 | 0.00 | 0.00 | 73 | 1015.2 |
| 20260506002403 | 16 | 149 | 0.0 | 3.2 | 0.00 | 0.00 | 0.00 | 73 | 1015.3 |
| 20260506001902 | 16 | 132 | 0.0 | 3.2 | 0.00 | 0.00 | 0.00 | 74 | 1015.2 |
| 20260506001402 | 16 | 41 | 0.0 | 3.2 | 0.00 | 0.00 | 0.00 | 74 | 1015.2 |
| 20260506000903 | 16 | 26 | 0.0 | 3.2 | 0.00 | 0.00 | 0.00 | 73 | 1015.3 |
| 20260506000403 | 16 | 30 | 1.6 | 8.0 | 0.00 | 0.00 | 0.00 | 74 | 1015.3 |
| 20260505235902 | 16 | 27 | 0.0 | 8.0 | 0.00 | 0.00 | 0.00 | 72 | 1015.4 |
| 20260505235403 | 16 | 5 | 0.0 | 8.0 | 0.00 | 0.00 | 0.00 | 73 | 1015.4 |
| 20260505234903 | 16 | 20 | 1.6 | 8.0 | 0.00 | 0.00 | 0.00 | 73 | 1015.4 |
| 20260505234403 | 16 | 272 | 0.0 | 1.6 | 0.00 | 0.00 | 0.00 | 73 | 1015.5 |
| 20260505233903 | 16 | 317 | 0.0 | 4.8 | 0.00 | 0.00 | 0.00 | 74 | 1015.5 |
| 20260505233403 | 16 | 25 | 1.6 | 4.8 | 0.00 | 0.00 | 0.00 | 73 | 1015.6 |
| 20260505232903 | 16 | 52 | 0.0 | 3.2 | 0.00 | 0.00 | 0.00 | 74 | 1015.6 |
| 20260505232403 | 16 | 115 | 0.0 | 3.2 | 0.00 | 0.00 | 0.00 | 72 | 1015.6 |
| 20260505231404 | 16 | 21 | 0.0 | 0.0 | 0.00 | 0.00 | 0.00 | 73 | 1015.6 |
| 20260505230904 | 16 | 267 | 0.0 | 0.0 | 0.00 | 0.00 | 0.00 | 72 | 1015.6 |
| 20260505225402 | 17 | 262 | 0.0 | 0.0 | 0.00 | 0.00 | 0.00 | 72 | 1015.7 |
| 20260505224903 | 17 | 238 | 0.0 | 0.0 | 0.00 | 0.00 | 0.00 | 73 | 1015.7 |
| 20260505224403 | 17 | 334 | 0.0 | 0.0 | 0.00 | 0.00 | 0.00 | 71 | 1015.7 |
| 20260505223403 | 17 | 9 | 0.0 | 0.0 | 0.00 | 0.00 | 0.00 | 72 | 1015.8 |
| 20260505222903 | 17 | 173 | 0.0 | 0.0 | 0.00 | 0.00 | 0.00 | 71 | 1015.7 |
| 20260505222403 | 17 | 276 | 0.0 | 3.2 | 0.00 | 0.00 | 0.00 | 73 | 1015.7 |
| 20260505221903 | 17 | 329 | 0.0 | 4.8 | 0.00 | 0.00 | 0.00 | 75 | 1015.8 |
| 20260505220403 | 17 | 30 | 1.6 | 8.0 | 0.00 | 0.00 | 0.00 | 74 | 1015.9 |
| 20260505215903 | 17 | 191 | 1.6 | 3.2 | 0.00 | 0.00 | 0.00 | 73 | 1015.9 |
| 20260505215403 | 17 | 7 | 1.6 | 3.2 | 0.00 | 0.00 | 0.00 | 72 | 1015.9 |
| 20260505214902 | 17 | 80 | 1.6 | 9.7 | 0.00 | 0.00 | 0.00 | 72 | 1016.0 |
| 20260505214403 | 17 | 139 | 1.6 | 9.7 | 0.00 | 0.00 | 0.00 | 74 | 1016.0 |
| 20260505213903 | 17 | 34 | 1.6 | 9.7 | 0.00 | 0.00 | 0.00 | 71 | 1016.0 |
| 20260505213403 | 17 | 272 | 0.0 | 3.2 | 0.00 | 0.00 | 0.00 | 71 | 1016.1 |
| 20260505212903 | 17 | 71 | 0.0 | 3.2 | 0.00 | 0.00 | 0.00 | 71 | 1016.1 |
| 20260505212403 | 17 | 160 | 1.6 | 3.2 | 0.00 | 0.00 | 0.00 | 72 | 1016.1 |
| 20260505211903 | 17 | 246 | 1.6 | 3.2 | 0.00 | 0.00 | 0.00 | 72 | 1016.1 |
| 20260505211403 | 17 | 251 | 1.6 | 3.2 | 0.00 | 0.00 | 0.00 | 74 | 1016.1 |
| 20260505210902 | 16 | 231 | 1.6 | 4.8 | 0.00 | 0.00 | 0.00 | 72 | 1016.2 |
| 20260505210403 | 16 | 269 | 1.6 | 4.8 | 0.00 | 0.00 | 0.00 | 72 | 1016.3 |
| 20260505205904 | 16 | 250 | 0.0 | 4.8 | 0.00 | 0.00 | 0.00 | 72 | 1016.3 |
| 20260505205403 | 16 | 209 | 0.0 | 4.8 | 0.00 | 0.00 | 0.00 | 72 | 1016.3 |
| 20260505204903 | 16 | 272 | 0.0 | 8.0 | 0.00 | 0.00 | 0.00 | 75 | 1016.4 |
| 20260505204402 | 16 | 283 | 1.6 | 8.0 | 0.00 | 0.00 | 0.00 | 75 | 1016.4 |
| 20260505203903 | 16 | 266 | 0.0 | 8.0 | 0.00 | 0.00 | 0.00 | 75 | 1016.4 |
| 20260505203403 | 16 | 231 | 1.6 | 4.8 | 0.00 | 0.00 | 0.00 | 74 | 1016.4 |
| 20260505202903 | 16 | 267 | 1.6 | 9.7 | 0.00 | 0.00 | 0.00 | 73 | 1016.4 |
| 20260505202403 | 16 | 175 | 3.2 | 9.7 | 0.00 | 0.00 | 0.00 | 73 | 1016.4 |
| 20260505201402 | 16 | 337 | 1.6 | 4.8 | 0.00 | 0.00 | 0.00 | 75 | 1016.5 |
| 20260505200903 | 16 | 183 | 0.0 | 3.2 | 0.00 | 0.00 | 0.00 | 73 | 1016.5 |
| 20260505200403 | 16 | 179 | 0.0 | 3.2 | 0.00 | 0.00 | 0.00 | 74 | 1016.4 |
| 20260505195903 | 16 | 210 | 1.6 | 3.2 | 0.00 | 0.00 | 0.00 | 75 | 1016.5 |
| 20260505195403 | 16 | 270 | 0.0 | 1.6 | 0.00 | 0.00 | 0.00 | 74 | 1016.5 |
| 20260505194902 | 16 | 229 | 1.6 | 1.6 | 0.00 | 0.00 | 0.00 | 75 | 1016.5 |
| 20260505194402 | 16 | 240 | 0.0 | 1.6 | 0.00 | 0.00 | 0.00 | 74 | 1016.5 |
| 20260505193903 | 15 | 32 | 0.0 | 1.6 | 0.00 | 0.00 | 0.00 | 77 | 1016.5 |
| 20260505193402 | 15 | 42 | 0.0 | 1.6 | 0.00 | 0.00 | 0.00 | 75 | 1016.5 |
| 20260505192902 | 15 | 51 | 0.0 | 1.6 | 0.00 | 0.00 | 0.00 | 77 | 1016.6 |
| 20260505192403 | 15 | 234 | 0.0 | 3.2 | 0.00 | 0.00 | 0.00 | 76 | 1016.5 |
| 20260505191903 | 15 | 239 | 1.6 | 4.8 | 0.00 | 0.00 | 0.00 | 77 | 1016.6 |
| 20260505190903 | 15 | 79 | 0.0 | 3.2 | 0.00 | 0.00 | 0.00 | 76 | 1016.6 |
| 20260505190403 | 15 | 86 | 0.0 | 3.2 | 0.00 | 0.00 | 0.00 | 77 | 1016.5 |
| 20260505185903 | 15 | 87 | 0.0 | 1.6 | 0.00 | 0.00 | 0.00 | 76 | 1016.5 |
| 20260505185403 | 15 | 85 | 0.0 | 4.8 | 0.00 | 0.00 | 0.00 | 76 | 1016.5 |
| 20260505184903 | 15 | 188 | 1.6 | 4.8 | 0.00 | 0.00 | 0.00 | 76 | 1016.5 |
| 20260505184404 | 15 | 229 | 1.6 | 3.2 | 0.00 | 0.00 | 0.00 | 76 | 1016.6 |
| 20260505183403 | 15 | 188 | 1.6 | 4.8 | 0.00 | 0.00 | 0.00 | 78 | 1016.6 |
| 20260505182903 | 15 | 196 | 0.0 | 3.2 | 0.00 | 0.00 | 0.00 | 77 | 1016.6 |
| 20260505182402 | 15 | 248 | 0.0 | 3.2 | 0.00 | 0.00 | 0.00 | 79 | 1016.6 |
| 20260505181903 | 15 | 94 | 1.6 | 3.2 | 0.00 | 0.00 | 0.00 | 78 | 1016.5 |
| 20260505181402 | 15 | 93 | 1.6 | 3.2 | 0.00 | 0.00 | 0.00 | 77 | 1016.6 |
| 20260505180903 | 14 | 65 | 1.6 | 3.2 | 0.00 | 0.00 | 0.00 | 79 | 1016.6 |
| 20260505180404 | 14 | 342 | 0.0 | 1.6 | 0.00 | 0.00 | 0.00 | 78 | 1016.6 |
| 20260505175903 | 14 | 81 | 0.0 | 4.8 | 0.00 | 0.00 | 0.00 | 79 | 1016.5 |
| 20260505175403 | 14 | 225 | 0.0 | 4.8 | 0.00 | 0.00 | 0.00 | 79 | 1016.5 |
| 20260505174402 | 14 | 119 | 0.0 | 4.8 | 0.00 | 0.00 | 0.00 | 81 | 1016.5 |
| 20260505173902 | 14 | 97 | 3.2 | 4.8 | 0.00 | 0.00 | 0.00 | 80 | 1016.6 |
| 20260505173402 | 13 | 126 | 0.0 | 3.2 | 0.00 | 0.00 | 0.00 | 81 | 1016.4 |
| 20260505172903 | 13 | 94 | 0.0 | 3.2 | 0.00 | 0.00 | 0.00 | 82 | 1016.4 |
| 20260505172403 | 13 | 158 | 1.6 | 3.2 | 0.00 | 0.00 | 0.00 | 81 | 1016.4 |
| 20260505171903 | 13 | 233 | 1.6 | 3.2 | 0.00 | 0.00 | 0.00 | 81 | 1016.3 |
| 20260505171403 | 13 | 3 | 0.0 | 3.2 | 0.00 | 0.00 | 0.00 | 82 | 1016.3 |
| 20260505170903 | 13 | 332 | 0.0 | 3.2 | 0.00 | 0.00 | 0.00 | 82 | 1016.3 |
| 20260505170403 | 13 | 339 | 1.6 | 3.2 | 0.00 | 0.00 | 0.00 | 82 | 1016.3 |
| 20260505165903 | 13 | 215 | 1.6 | 4.8 | 0.00 | 0.00 | 0.00 | 82 | 1016.3 |
| 20260505164403 | 13 | 248 | 0.0 | 0.0 | 0.00 | 0.00 | 0.00 | 83 | 1016.3 |
| 20260505163903 | 13 | 202 | 0.0 | 0.0 | 0.00 | 0.00 | 0.00 | 83 | 1016.3 |
| 20260505163403 | 13 | 214 | 0.0 | 0.0 | 0.00 | 0.00 | 0.00 | 83 | 1016.3 |
| 20260505162902 | 13 | 167 | 0.0 | 0.0 | 0.00 | 0.00 | 0.00 | 83 | 1016.2 |
| 20260505162403 | 13 | 170 | 0.0 | 0.0 | 0.00 | 0.00 | 0.00 | 83 | 1016.2 |
| 20260505161903 | 13 | 225 | 0.0 | 0.0 | 0.00 | 0.00 | 0.00 | 83 | 1016.1 |
| 20260505161403 | 13 | 214 | 0.0 | 0.0 | 0.00 | 0.00 | 0.00 | 84 | 1016.1 |
| 20260505160903 | 13 | 216 | 0.0 | 0.0 | 0.00 | 0.00 | 0.00 | 84 | 1016.1 |
| 20260505160403 | 13 | 203 | 0.0 | 0.0 | 0.00 | 0.00 | 0.00 | 84 | 1016.2 |
| 20260505152903 | 12 | 174 | 0.0 | 0.0 | 0.00 | 0.00 | 0.00 | 85 | 1016.1 |
| 20260505152403 | 12 | 215 | 0.0 | 0.0 | 0.00 | 0.00 | 0.00 | 86 | 1016.0 |
| 20260505151903 | 12 | 216 | 0.0 | 0.0 | 0.00 | 0.00 | 0.00 | 86 | 1016.0 |
| 20260505150903 | 12 | 226 | 0.0 | 0.0 | 0.00 | 0.00 | 0.00 | 86 | 1015.9 |
| 20260505150403 | 12 | 239 | 0.0 | 0.0 | 0.00 | 0.00 | 0.00 | 87 | 1015.8 |
| 20260505140403 | 12 | 243 | 0.0 | 0.0 | 0.00 | 0.00 | 0.00 | 87 | 1015.2 |
| 20260505124904 | 12 | 250 | 0.0 | 0.0 | 0.00 | 0.00 | 0.00 | 88 | 1014.9 |
| 20260505123403 | 12 | 250 | 0.0 | 0.0 | 0.00 | 0.00 | 0.00 | 88 | 1014.9 |
| 20260505122903 | 12 | 250 | 0.0 | 0.0 | 0.00 | 0.00 | 0.00 | 89 | 1014.8 |
| 20260505122403 | 12 | 250 | 0.0 | 0.0 | 0.00 | 0.00 | 0.00 | 88 | 1014.9 |
| 20260505121903 | 12 | 250 | 0.0 | 0.0 | 0.00 | 0.00 | 0.00 | 88 | 1014.9 |
| 20260505121403 | 12 | 250 | 0.0 | 0.0 | 0.00 | 0.00 | 0.00 | 88 | 1014.8 |
| 20260505120403 | 12 | 250 | 0.0 | 0.0 | 0.00 | 0.00 | 0.00 | 88 | 1014.8 |
| 20260505115904 | 12 | 250 | 0.0 | 0.0 | 0.00 | 0.00 | 0.00 | 88 | 1014.8 |
| 20260505115403 | 12 | 250 | 0.0 | 0.0 | 0.00 | 0.00 | 0.00 | 88 | 1014.7 |
| 20260505114903 | 12 | 250 | 0.0 | 0.0 | 0.00 | 0.00 | 0.00 | 88 | 1014.7 |
| 20260505114404 | 12 | 250 | 0.0 | 0.0 | 0.00 | 0.00 | 0.00 | 88 | 1014.7 |
| 20260505113402 | 12 | 250 | 0.0 | 0.0 | 0.00 | 0.00 | 0.00 | 88 | 1014.7 |
| 20260505112904 | 12 | 250 | 0.0 | 0.0 | 0.00 | 0.00 | 0.00 | 88 | 1014.8 |
| 20260505111903 | 12 | 250 | 0.0 | 0.0 | 0.00 | 0.00 | 0.00 | 88 | 1014.7 |
| 20260505111403 | 12 | 250 | 0.0 | 0.0 | 0.00 | 0.00 | 0.00 | 88 | 1014.7 |
| 20260505110903 | 12 | 250 | 0.0 | 0.0 | 0.00 | 0.00 | 0.00 | 88 | 1014.7 |
| 20260505101903 | 12 | 250 | 0.0 | 0.0 | 0.00 | 0.00 | 0.00 | 88 | 1014.3 |
| 20260505101404 | 12 | 248 | 0.0 | 0.0 | 0.00 | 0.00 | 0.00 | 88 | 1014.3 |
| 20260505100903 | 12 | 252 | 0.0 | 0.0 | 0.00 | 0.00 | 0.00 | 88 | 1014.3 |
| 20260505100403 | 12 | 248 | 0.0 | 0.0 | 0.00 | 0.00 | 0.00 | 88 | 1014.3 |
| 20260505095903 | 12 | 230 | 0.0 | 0.0 | 0.00 | 0.00 | 0.00 | 88 | 1014.3 |
| 20260505094903 | 12 | 230 | 0.0 | 3.2 | 0.00 | 0.00 | 0.00 | 87 | 1014.2 |
| 20260505094403 | 12 | 230 | 0.0 | 3.2 | 0.00 | 0.00 | 0.00 | 87 | 1014.2 |
| 20260505093903 | 12 | 230 | 0.0 | 0.0 | 0.00 | 0.00 | 0.00 | 87 | 1014.2 |
| 20260505093403 | 12 | 230 | 0.0 | 0.0 | 0.00 | 0.00 | 0.00 | 87 | 1014.2 |